Time,TemperatureF,DewpointF,PressureIn,WindDirection,WindDirectionDegrees,WindSpeedMPH,WindSpeedGustMPH,Humidity,HourlyPrecipIn,Conditions,Clouds,dailyrainin,SoftwareType,DateUTC
2013-01-09 00:03:00,23.0,21.0,30.55,South,180,0.0,0.0,90,0.00,,,0.01,,2013-01-09 05:03:00,
2013-01-09 00:12:00,23.0,21.0,30.55,South,180,0.0,0.0,90,0.00,,,0.01,,2013-01-09 05:12:00,
2013-01-09 00:22:00,23.0,20.0,30.55,South,180,0.0,0.0,89,0.00,,,0.01,,2013-01-09 05:22:00,
2013-01-09 00:33:00,23.0,20.0,30.56,South,181,0.0,0.0,89,0.00,,,0.01,,2013-01-09 05:33:00,
2013-01-09 00:42:00,23.0,20.0,30.56,South,181,0.0,0.0,89,0.00,,,0.01,,2013-01-09 05:42:00,
2013-01-09 00:52:00,23.0,21.0,30.55,South,181,0.0,0.0,90,0.00,,,0.01,,2013-01-09 05:52:00,
2013-01-09 01:02:00,23.0,21.0,30.55,South,180,0.0,0.0,90,0.00,,,0.01,,2013-01-09 06:02:00,
2013-01-09 01:12:00,23.0,21.0,30.55,South,180,0.0,0.0,90,0.00,,,0.01,,2013-01-09 06:12:00,
2013-01-09 01:22:00,23.0,20.0,30.55,South,181,0.0,0.0,89,0.00,,,0.01,,2013-01-09 06:22:00,
2013-01-09 01:32:00,23.0,21.0,30.55,South,180,0.0,0.0,90,0.00,,,0.01,,2013-01-09 06:32:00,
2013-01-09 01:42:00,23.0,21.0,30.55,South,180,0.0,0.0,90,0.00,,,0.01,,2013-01-09 06:42:00,
2013-01-09 01:52:00,23.0,21.0,30.55,South,181,0.0,0.0,90,0.00,,,0.01,,2013-01-09 06:52:00,
2013-01-09 02:02:00,22.0,20.0,30.56,South,180,0.0,0.0,90,0.00,,,0.01,,2013-01-09 07:02:00,
2013-01-09 02:12:00,22.0,20.0,30.56,South,180,0.0,0.0,90,0.00,,,0.01,,2013-01-09 07:12:00,
2013-01-09 02:22:00,22.0,20.0,30.55,South,180,0.0,0.0,90,0.00,,,0.01,,2013-01-09 07:22:00,
2013-01-09 02:32:00,22.0,20.0,30.55,South,180,0.0,0.0,91,0.00,,,0.01,,2013-01-09 07:32:00,
2013-01-09 02:42:00,22.0,20.0,30.55,South,180,0.0,0.0,91,0.00,,,0.01,,2013-01-09 07:42:00,
2013-01-09 02:52:00,21.0,19.0,30.55,South,180,0.0,0.0,91,0.00,,,0.01,,2013-01-09 07:52:00,
2013-01-09 03:02:00,21.0,19.0,30.55,South,180,0.0,0.0,92,0.00,,,0.01,,2013-01-09 08:02:00,
2013-01-09 03:12:00,21.0,19.0,30.55,South,180,0.0,0.0,92,0.00,,,0.01,,2013-01-09 08:12:00,
2013-01-09 03:22:00,20.0,18.0,30.54,South,180,0.0,0.0,92,0.00,,,0.01,,2013-01-09 08:22:00,
2013-01-09 03:32:00,20.0,18.0,30.55,South,180,0.0,0.0,92,0.00,,,0.01,,2013-01-09 08:32:00,
2013-01-09 03:42:00,20.0,18.0,30.55,South,180,0.0,0.0,92,0.00,,,0.01,,2013-01-09 08:42:00,
2013-01-09 03:53:00,20.0,18.0,30.54,South,180,0.0,0.0,92,0.00,,,0.01,,2013-01-09 08:53:00,
2013-01-09 04:02:00,20.0,18.0,30.54,South,180,0.0,0.0,92,0.00,,,0.01,,2013-01-09 09:02:00,
2013-01-09 04:12:00,20.0,18.0,30.54,South,180,0.0,0.0,92,0.00,,,0.01,,2013-01-09 09:12:00,
2013-01-09 04:22:00,20.0,18.0,30.54,South,180,0.0,0.0,92,0.00,,,0.01,,2013-01-09 09:22:00,
2013-01-09 04:32:00,19.0,17.0,30.54,South,181,0.0,0.0,92,0.00,,,0.01,,2013-01-09 09:32:00,
2013-01-09 04:42:00,19.0,17.0,30.54,South,181,0.0,0.0,92,0.00,,,0.01,,2013-01-09 09:42:00,
2013-01-09 04:53:00,19.0,17.0,30.54,South,181,0.0,0.0,92,0.00,,,0.01,,2013-01-09 09:53:00,
2013-01-09 05:02:00,19.0,17.0,30.55,South,180,0.0,0.0,92,0.00,,,0.01,,2013-01-09 10:02:00,
2013-01-09 05:12:00,19.0,17.0,30.55,South,180,0.0,0.0,92,0.00,,,0.01,,2013-01-09 10:12:00,
2013-01-09 05:22:00,18.0,16.0,30.54,South,181,0.0,0.0,92,0.00,,,0.01,,2013-01-09 10:22:00,
2013-01-09 05:32:00,18.0,16.0,30.54,South,180,0.0,0.0,93,0.00,,,0.01,,2013-01-09 10:32:00,
2013-01-09 05:42:00,18.0,16.0,30.54,South,180,0.0,0.0,93,0.00,,,0.01,,2013-01-09 10:42:00,
2013-01-09 05:52:00,18.0,16.0,30.54,South,174,0.0,0.0,93,0.00,,,0.01,,2013-01-09 10:52:00,
2013-01-09 06:02:00,18.0,16.0,30.54,South,175,0.0,0.0,93,0.00,,,0.01,,2013-01-09 11:02:00,
2013-01-09 06:12:00,18.0,16.0,30.54,South,175,0.0,0.0,93,0.00,,,0.01,,2013-01-09 11:12:00,
2013-01-09 06:22:00,18.0,16.0,30.54,South,176,0.0,0.0,93,0.00,,,0.01,,2013-01-09 11:22:00,
2013-01-09 06:33:00,17.0,15.0,30.55,South,174,0.0,0.0,92,0.00,,,0.01,,2013-01-09 11:33:00,
2013-01-09 06:42:00,17.0,15.0,30.55,South,174,0.0,0.0,92,0.00,,,0.01,,2013-01-09 11:42:00,
2013-01-09 06:53:00,17.0,15.0,30.55,South,175,0.0,0.0,92,0.00,,,0.01,,2013-01-09 11:53:00,
2013-01-09 07:03:00,16.0,14.0,30.56,South,174,0.0,0.0,92,0.00,,,0.01,,2013-01-09 12:03:00,
2013-01-09 07:12:00,16.0,14.0,30.56,South,174,0.0,0.0,92,0.00,,,0.01,,2013-01-09 12:12:00,
2013-01-09 07:23:00,16.0,14.0,30.56,South,174,0.0,0.0,92,0.00,,,0.01,,2013-01-09 12:23:00,
2013-01-09 07:33:00,16.0,14.0,30.57,South,174,0.0,0.0,92,0.00,,,0.01,,2013-01-09 12:33:00,
2013-01-09 07:43:00,16.0,14.0,30.57,South,174,0.0,0.0,92,0.00,,,0.01,,2013-01-09 12:43:00,
2013-01-09 07:52:00,16.0,14.0,30.56,South,174,0.0,0.0,92,0.00,,,0.01,,2013-01-09 12:52:00,
2013-01-09 08:03:00,16.0,14.0,30.55,South,174,0.0,0.0,92,0.00,,,0.01,,2013-01-09 13:03:00,
2013-01-09 08:12:00,16.0,14.0,30.55,South,174,0.0,0.0,92,0.00,,,0.01,,2013-01-09 13:12:00,
2013-01-09 08:23:00,17.0,15.0,30.56,South,174,0.0,0.0,93,0.00,,,0.01,,2013-01-09 13:23:00,
2013-01-09 08:33:00,17.0,15.0,30.55,South,174,0.0,0.0,92,0.00,,,0.01,,2013-01-09 13:33:00,
2013-01-09 08:43:00,17.0,15.0,30.55,South,174,0.0,0.0,92,0.00,,,0.01,,2013-01-09 13:43:00,
2013-01-09 08:52:00,18.0,16.0,30.56,South,174,0.0,0.0,92,0.00,,,0.01,,2013-01-09 13:52:00,
2013-01-09 09:03:00,19.0,17.0,30.55,South,174,0.0,0.0,91,0.00,,,0.01,,2013-01-09 14:03:00,
2013-01-09 09:12:00,19.0,17.0,30.55,South,174,0.0,0.0,91,0.00,,,0.01,,2013-01-09 14:12:00,
2013-01-09 09:23:00,19.0,17.0,30.55,South,174,0.0,0.0,91,0.00,,,0.01,,2013-01-09 14:23:00,
2013-01-09 09:33:00,20.0,18.0,30.54,South,174,0.0,0.0,90,0.00,,,0.01,,2013-01-09 14:33:00,
2013-01-09 09:43:00,20.0,18.0,30.54,South,174,0.0,0.0,90,0.00,,,0.01,,2013-01-09 14:43:00,
2013-01-09 09:53:00,21.0,19.0,30.53,South,175,0.0,0.0,90,0.00,,,0.01,,2013-01-09 14:53:00,
2013-01-09 10:03:00,22.0,19.0,30.52,South,174,0.0,0.0,89,0.00,,,0.01,,2013-01-09 15:03:00,
2013-01-09 10:13:00,22.0,19.0,30.52,South,174,0.0,0.0,89,0.00,,,0.01,,2013-01-09 15:13:00,
2013-01-09 10:23:00,24.0,21.0,30.52,South,174,0.0,0.0,87,0.00,,,0.01,,2013-01-09 15:23:00,
2013-01-09 10:33:00,24.0,21.0,30.53,West,260,0.0,0.0,87,0.00,,,0.01,,2013-01-09 15:33:00,
2013-01-09 10:43:00,24.0,21.0,30.53,West,260,0.0,0.0,87,0.00,,,0.01,,2013-01-09 15:43:00,
2013-01-09 10:53:00,25.0,21.0,30.53,West,262,0.0,0.0,85,0.00,,,0.01,,2013-01-09 15:53:00,
2013-01-09 11:04:00,25.0,21.0,30.51,West,271,0.0,0.0,85,0.00,,,0.01,,2013-01-09 16:04:00,
2013-01-09 11:12:00,25.0,21.0,30.51,West,271,0.0,0.0,85,0.00,,,0.01,,2013-01-09 16:12:00,
2013-01-09 11:23:00,27.0,23.0,30.48,SE,138,0.0,0.0,83,0.00,,,0.01,,2013-01-09 16:23:00,
2013-01-09 11:33:00,29.0,24.0,30.46,SE,139,0.0,0.0,82,0.00,,,0.01,,2013-01-09 16:33:00,
2013-01-09 11:43:00,29.0,24.0,30.46,SE,139,0.0,0.0,82,0.00,,,0.01,,2013-01-09 16:43:00,
2013-01-09 11:53:00,31.0,25.0,30.42,SE,138,0.0,0.0,78,0.00,,,0.01,,2013-01-09 16:53:00,
2013-01-09 12:03:00,32.0,25.0,30.40,WSW,249,0.0,0.0,75,0.00,,,0.01,,2013-01-09 17:03:00,
2013-01-09 12:12:00,32.0,25.0,30.40,WSW,249,0.0,0.0,75,0.00,,,0.01,,2013-01-09 17:12:00,
2013-01-09 12:23:00,31.0,24.0,30.40,West,281,1.0,1.0,75,0.00,,,0.01,,2013-01-09 17:23:00,
2013-01-09 12:33:00,32.0,25.0,30.36,West,259,0.0,1.0,75,0.00,,,0.01,,2013-01-09 17:33:00,
2013-01-09 12:43:00,32.0,25.0,30.36,West,259,0.0,1.0,75,0.00,,,0.01,,2013-01-09 17:43:00,
2013-01-09 12:53:00,34.0,26.0,30.35,SSW,194,0.0,3.0,72,0.00,,,0.01,,2013-01-09 17:53:00,
2013-01-09 13:03:00,32.0,24.0,30.37,WNW,289,0.0,3.0,73,0.00,,,0.01,,2013-01-09 18:03:00,
2013-01-09 13:12:00,32.0,24.0,30.37,WNW,289,0.0,3.0,73,0.00,,,0.01,,2013-01-09 18:12:00,
2013-01-09 13:24:00,31.0,24.0,30.39,WNW,293,0.0,1.0,76,0.00,,,0.01,,2013-01-09 18:24:00,
2013-01-09 13:33:00,32.0,24.0,30.37,NNW,330,0.0,1.0,73,0.00,,,0.01,,2013-01-09 18:33:00,
2013-01-09 13:43:00,32.0,24.0,30.37,NNW,330,0.0,1.0,73,0.00,,,0.01,,2013-01-09 18:43:00,
2013-01-09 13:53:00,32.0,24.0,30.37,NNW,330,0.0,1.0,73,0.00,,,0.01,,2013-01-09 18:53:00,
2013-01-09 14:03:00,34.0,26.0,30.34,NE,41,0.0,1.0,71,0.00,,,0.01,,2013-01-09 19:03:00,
2013-01-09 14:13:00,34.0,26.0,30.34,NE,41,0.0,1.0,71,0.00,,,0.01,,2013-01-09 19:13:00,
2013-01-09 14:23:00,33.0,25.0,30.32,SE,146,0.0,1.0,73,0.00,,,0.01,,2013-01-09 19:23:00,
2013-01-09 14:33:00,34.0,26.0,30.31,South,177,0.0,2.0,73,0.00,,,0.00,,2013-01-09 19:33:00,
2013-01-09 14:43:00,34.0,26.0,30.31,South,177,0.0,2.0,73,0.00,,,0.00,,2013-01-09 19:43:00,
2013-01-09 14:52:00,35.0,27.0,30.30,NNE,13,0.0,2.0,73,0.00,,,0.00,,2013-01-09 19:52:00,
2013-01-09 15:03:00,37.0,28.0,30.28,SSE,155,1.0,2.0,70,0.00,,,0.00,,2013-01-09 20:03:00,
2013-01-09 15:12:00,37.0,28.0,30.28,SSE,155,1.0,2.0,70,0.00,,,0.00,,2013-01-09 20:12:00,
2013-01-09 15:23:00,38.0,28.0,30.28,WNW,297,0.0,4.0,67,0.00,,,0.00,,2013-01-09 20:23:00,
2013-01-09 15:33:00,37.0,28.0,30.24,SE,146,0.0,2.0,69,0.00,,,0.00,,2013-01-09 20:33:00,
2013-01-09 15:43:00,37.0,28.0,30.24,SE,146,0.0,2.0,69,0.00,,,0.00,,2013-01-09 20:43:00,
2013-01-09 15:53:00,38.0,29.0,30.23,West,280,0.0,2.0,70,0.00,,,0.00,,2013-01-09 20:53:00,
2013-01-09 16:03:00,38.0,29.0,30.22,NW,322,0.0,6.0,71,0.00,,,0.00,,2013-01-09 21:03:00,
2013-01-09 16:13:00,38.0,29.0,30.22,NW,322,0.0,6.0,71,0.00,,,0.00,,2013-01-09 21:13:00,
2013-01-09 16:23:00,39.0,30.0,30.24,SE,135,2.0,5.0,70,0.00,,,0.00,,2013-01-09 21:23:00,
2013-01-09 16:33:00,38.0,29.0,30.23,WSW,256,2.0,6.0,71,0.00,,,0.00,,2013-01-09 21:33:00,
2013-01-09 16:43:00,38.0,29.0,30.23,WSW,256,2.0,6.0,71,0.00,,,0.00,,2013-01-09 21:43:00,
2013-01-09 16:52:00,38.0,30.0,30.21,SW,233,0.0,5.0,72,0.00,,,0.00,,2013-01-09 21:52:00,
2013-01-09 17:03:00,38.0,30.0,30.20,WNW,294,1.0,5.0,73,0.00,,,0.00,,2013-01-09 22:03:00,
2013-01-09 17:12:00,38.0,30.0,30.20,WNW,294,1.0,5.0,73,0.00,,,0.00,,2013-01-09 22:12:00,
2013-01-09 17:23:00,38.0,30.0,30.18,WSW,256,2.0,5.0,74,0.00,,,0.00,,2013-01-09 22:23:00,
2013-01-09 17:33:00,38.0,31.0,30.17,WSW,249,1.0,6.0,75,0.00,,,0.00,,2013-01-09 22:33:00,
2013-01-09 17:43:00,38.0,31.0,30.17,WSW,249,1.0,6.0,75,0.00,,,0.00,,2013-01-09 22:43:00,
2013-01-09 17:52:00,38.0,31.0,30.18,SSW,195,1.0,5.0,76,0.00,,,0.00,,2013-01-09 22:52:00,
2013-01-09 18:03:00,37.0,30.0,30.19,NE,37,0.0,2.0,77,0.00,,,0.00,,2013-01-09 23:03:00,
2013-01-09 18:13:00,37.0,30.0,30.19,NE,37,0.0,2.0,77,0.00,,,0.00,,2013-01-09 23:13:00,
2013-01-09 18:23:00,36.0,30.0,30.19,North,359,0.0,2.0,80,0.00,,,0.00,,2013-01-09 23:23:00,
2013-01-09 18:33:00,35.0,30.0,30.19,North,359,0.0,0.0,81,0.00,,,0.00,,2013-01-09 23:33:00,
2013-01-09 18:43:00,35.0,30.0,30.19,North,359,0.0,0.0,81,0.00,,,0.00,,2013-01-09 23:43:00,
2013-01-09 18:52:00,33.0,29.0,30.19,WSW,253,0.0,1.0,84,0.00,,,0.00,,2013-01-09 23:52:00,
2013-01-09 19:03:00,31.0,27.0,30.20,NNE,27,0.0,1.0,86,0.00,,,0.00,,2013-01-10 00:03:00,
2013-01-09 19:12:00,31.0,27.0,30.20,NNE,27,0.0,1.0,86,0.00,,,0.00,,2013-01-10 00:12:00,
2013-01-09 19:22:00,30.0,27.0,30.19,NW,324,0.0,1.0,88,0.00,,,0.00,,2013-01-10 00:22:00,
2013-01-09 19:32:00,30.0,27.0,30.20,North,352,0.0,1.0,89,0.00,,,0.00,,2013-01-10 00:32:00,
2013-01-09 19:42:00,30.0,27.0,30.20,North,352,0.0,1.0,89,0.00,,,0.00,,2013-01-10 00:42:00,
2013-01-09 19:53:00,29.0,26.0,30.20,North,352,0.0,0.0,90,0.00,,,0.00,,2013-01-10 00:53:00,
2013-01-09 20:02:00,29.0,26.0,30.20,North,352,0.0,0.0,90,0.00,,,0.00,,2013-01-10 01:02:00,
2013-01-09 20:12:00,29.0,26.0,30.20,North,352,0.0,0.0,90,0.00,,,0.00,,2013-01-10 01:12:00,
2013-01-09 20:22:00,29.0,27.0,30.19,North,350,0.0,0.0,92,0.00,,,0.00,,2013-01-10 01:22:00,
2013-01-09 20:33:00,29.0,27.0,30.19,NE,41,0.0,2.0,92,0.00,,,0.00,,2013-01-10 01:33:00,
2013-01-09 20:43:00,29.0,27.0,30.19,NE,41,0.0,2.0,92,0.00,,,0.00,,2013-01-10 01:43:00,
2013-01-09 20:52:00,29.0,27.0,30.18,North,6,1.0,2.0,92,0.00,,,0.00,,2013-01-10 01:52:00,
2013-01-09 21:03:00,28.0,26.0,30.18,WNW,282,0.0,2.0,92,0.00,,,0.00,,2013-01-10 02:03:00,
2013-01-09 21:12:00,28.0,26.0,30.18,WNW,282,0.0,2.0,92,0.00,,,0.00,,2013-01-10 02:12:00,
2013-01-09 21:22:00,28.0,26.0,30.19,North,8,0.0,1.0,92,0.00,,,0.00,,2013-01-10 02:22:00,
2013-01-09 21:33:00,28.0,26.0,30.20,NE,49,1.0,6.0,93,0.00,,,0.00,,2013-01-10 02:33:00,
2013-01-09 21:43:00,28.0,26.0,30.20,NE,49,1.0,6.0,93,0.00,,,0.00,,2013-01-10 02:43:00,
2013-01-09 21:52:00,28.0,26.0,30.20,NE,49,1.0,6.0,93,0.00,,,0.00,,2013-01-10 02:52:00,
2013-01-09 22:03:00,28.0,26.0,30.21,SE,128,0.0,2.0,92,0.00,,,0.00,,2013-01-10 03:03:00,
2013-01-09 22:12:00,28.0,26.0,30.21,SE,128,0.0,2.0,92,0.00,,,0.00,,2013-01-10 03:12:00,
2013-01-09 22:22:00,30.0,28.0,30.21,ESE,102,0.0,3.0,93,0.00,,,0.00,,2013-01-10 03:22:00,
2013-01-09 22:33:00,36.0,29.0,30.21,ENE,74,2.0,8.0,76,0.00,,,0.00,,2013-01-10 03:33:00,
2013-01-09 22:42:00,36.0,29.0,30.21,ENE,74,2.0,8.0,76,0.00,,,0.00,,2013-01-10 03:42:00,
2013-01-09 22:52:00,39.0,28.0,30.21,WNW,294,2.0,6.0,64,0.00,,,0.00,,2013-01-10 03:52:00,
2013-01-09 23:02:00,39.0,28.0,30.22,SE,130,1.0,7.0,64,0.00,,,0.00,,2013-01-10 04:02:00,
2013-01-09 23:12:00,39.0,28.0,30.22,SE,130,1.0,7.0,64,0.00,,,0.00,,2013-01-10 04:12:00,
2013-01-09 23:22:00,40.0,28.0,30.22,WNW,287,4.0,11.0,61,0.00,,,0.00,,2013-01-10 04:22:00,
2013-01-09 23:32:00,40.0,28.0,30.23,West,262,2.0,5.0,61,0.00,,,0.00,,2013-01-10 04:32:00,
2013-01-09 23:43:00,40.0,28.0,30.23,West,262,2.0,5.0,61,0.00,,,0.00,,2013-01-10 04:43:00,
2013-01-09 23:52:00,41.0,28.0,30.22,WNW,297,4.0,13.0,60,0.00,,,0.00,,2013-01-10 04:52:00,